Regional Weather Roundup
Issued by NWS San Angelo, TX

Home | Current Version | Previous Version | Text Only | Print | Product List | Glossary On
Versions: 1 2 3 4 5 6 7 8 9 10 11 12 13 14 15 16 17 18 19 20 21 22 23 24 25 26 27 28 29 30 31 32 33 34 35 36 37 38 39 40 41 42 43 44 45 46 47 48 49 50
000
ASUS44 KSJT 260311
RWRSJT
WEST CENTRAL TEXAS REGIONAL WEATHER ROUNDUP
NATIONAL WEATHER SERVICE SAN ANGELO TX
1000 PM CDT WED MAY 25 2016

NOTE: "FAIR" INDICATES FEW OR NO CLOUDS BELOW 12,000 FEET WITH NO
SIGNIFICANT WEATHER AND/OR OBSTRUCTIONS TO VISIBILITY.

TXZ049-054-064>066-071>073-076>078-098-099-113-114-127-128-139-140-
154-155-168>170-260400
...LOCATIONS ACROSS WEST CENTRAL TEXAS...

CITY           SKY/WX    TMP DP  RH WIND       PRES   REMARKS
SAN ANGELO     CLOUDY    81  72  74 S15G23    29.92R
ABILENE        CLEAR     78  72  81 S12       29.93R
DYESS AFB      CLEAR     79  68  69 SE16      29.90R
JUNCTION       CLOUDY    79  74  84 SE5       29.98S HAZE
SWEETWATER     CLEAR     79  69  72 SE15G23   29.95R
BROWNWOOD      CLOUDY    77  73  88 SE8       29.95R FOG
COLEMAN        CLOUDY    78  72  82 S8        29.95R
SONORA         CLOUDY    81  73  78 S10G18    30.03S
OZONA          FAIR      79  70  73 S17G24    30.01R
BRADY          NOT AVBL
$$

TEXAS PANHANDLE/OKLAHOMA PANHANDLE

CITY           SKY/WX    TMP DP  RH WIND       PRES   REMARKS
AMARILLO       CLEAR     72  30  21 S9        29.91S
BORGER         CLEAR     80  30  16 S7        29.87R
CANADIAN       CLEAR     76  49  38 S10       29.83S
DALHART        CLEAR     62  41  46 S8        29.90S
DUMAS          CLEAR     62  37  38 S10       29.89S
GUYMON         NOT AVBL
HEREFORD       CLEAR     66  32  28 S8        29.93R
PAMPA          CLEAR     67  53  60 S9        29.90S
PERRYTON       NOT AVBL
$$

SOUTHERN PANHANDLE/SOUTH PLAINS/ROLLING PLAINS

CITY           SKY/WX    TMP DP  RH WIND       PRES   REMARKS
LUBBOCK        CLEAR     80  32  17 S10       29.91S
SNYDER           N/A     80  66  63 SE8       29.91S
CHILDRESS      CLEAR     76  55  48 SE9       29.83S
SEMINOLE       CLEAR     80  39  23 S7        29.95R
$$

PERMIAN BASIN

CITY           SKY/WX    TMP DP  RH WIND       PRES   REMARKS
MIDLAND        CLEAR     83  66  56 S18       29.92R
ODESSA         CLEAR     83  66  56 S14       29.93R
WINK           CLOUDY    84  63  49 MISG      29.90R
$$

FAR WEST/SOUTHWEST MOUNTAINS/TRANS PECOS

CITY           SKY/WX    TMP DP  RH WIND       PRES   REMARKS
ALPINE         CLOUDY    76  49  38 W5        30.09F
DRYDEN           N/A     80  74  81 E13       29.94R
EL PASO        CLEAR     84   5   5 W20G29    29.94R
FORT STOCKTON  CLOUDY    79  69  71 SE21G32   29.95S
GUADALUPE PASS NOT AVBL
MARFA          CLOUDY    75  41  29 S5        30.08
PECOS          MOCLDY    89  57  33 E16G26    29.86R
$$

DALLAS/FORT WORTH METROPLEX

CITY           SKY/WX    TMP DP  RH WIND       PRES   REMARKS
DFW AIRPORT    CLOUDY    83  74  74 S14       29.92S
FTW MEACHAM    CLOUDY    82  74  76 S14G23    29.93R
DAL-EXECUTIVE  MOCLDY    81  73  76 S9G18     29.94R
GRAND PRAIRIE  CLOUDY    81  73  76 S9        29.95R
ADDISON        PTCLDY    82  75  78 S13G24    29.94R
MESQUITE       MOCLDY    80  74  82 S10       29.95R
LANCASTER      CLOUDY    80  73  77 S6        29.96R
$$

NORTH CENTRAL TEXAS

CITY           SKY/WX    TMP DP  RH WIND       PRES   REMARKS
SHRMAN/DENISON PTCLDY    76  69  79 S14       29.93S
GAINESVILLE    CLEAR     77  74  89 S9        29.93S
BRIDGEPORT     CLEAR     80  75  84 SE6       29.93S
DENTON         CLOUDY    80  74  81 S12       29.92R
WAXAHACHIE     CLOUDY    80  74  83 SE7       29.97R
GRANBURY       PTCLDY    82  74  78 SE10      29.94R
$$

WESTERN NORTH TEXAS

CITY           SKY/WX    TMP DP  RH WIND       PRES   REMARKS
WICHITA FALLS  CLEAR     80  73  79 SE14      29.86R
VERNON         CLEAR     84  70  63 S14       29.84R
BRECKENRIDGE   CLEAR     81  72  73 S10G17    29.91R
COMANCHE       MOCLDY    76  76 100 SE5       29.96R
$$

CENTRAL AND SOUTH CENTRAL TEXAS

CITY           SKY/WX    TMP DP  RH WIND       PRES   REMARKS
AUSTIN/BERGSTM MOCLDY    80  74  81 S9        29.97R
WACO           CLOUDY    80  73  79 S13       29.96R
HILLSBORO      CLOUDY    78  73  86 SE8       29.96R
TEMPLE         CLOUDY    80  75  84 SE16      29.98R
KILLEEN-GRAY   CLOUDY    77  74  90 SE12      29.97R
FORT HOOD      CLOUDY    77  74  90 S9        29.96R FOG
GEORGETOWN     CLOUDY    81  73  78 S8        29.99R
LAGO VISTA     MOCLDY    80  75  85 S5        30.01R
SAN MARCOS     CLOUDY    79  75  89 S9        29.99R
NEW BRAUNFELS  CLOUDY    80  74  81 S15       29.98R
RANDOLPH AFB   CLOUDY    80  77  91 S9        29.99R
SAN ANTONIO    CLOUDY    81  75  82 SE13      29.99R
STINSON        CLOUDY    82  75  79 SE5       29.97R
PLEASANTON     NOT AVBL
LA GRANGE        N/A     81  76  85 S9        29.99R
GIDDINGS       CLOUDY    78  72  82 S5        30.04R
$$

EAST TEXAS

CITY           SKY/WX    TMP DP  RH WIND       PRES   REMARKS
PARIS          CLOUDY    79  66  65 S8        29.95R
CLARKSVILLE    NOT AVBL
TYLER          CLOUDY    81  73  76 S12       29.97S
LONGVIEW       MOCLDY    80  74  81 S9        29.98R
PALESTINE      CLOUDY    80  75  84 SE5       29.99R
NACOGDOCHES    CLOUDY    79  73  83 S6        30.01R
$$

TEXAS HILL COUNTRY AND EDWARDS PLATEAU

CITY           SKY/WX    TMP DP  RH WIND       PRES   REMARKS
LLANO          CLOUDY    81  75  83 S5        30.01R
HORSESHOE BAY  CLOUDY    80  74  82 S7        29.99R
KERRVILLE      CLOUDY    79  76  90 SE8       30.02R
FREDERICKSBRG  CLOUDY    79  73  84 S6        30.02R
ROCKSPRINGS      N/A     79  75  89 S9        30.04S
HONDO          CLOUDY    82  76  81 SE16      29.98S
UVALDE         CLOUDY    82  76  81 SE7       29.98R
DEL RIO        CLOUDY    83  76  79 SE12      29.92F HAZE
$$

SOUTHEAST TEXAS

CITY           SKY/WX    TMP DP  RH WIND       PRES   REMARKS
COLLEGE STN    CLOUDY    81  74  79 S13       30.00R
CALDWELL       PTCLDY    79  73  83 SE7       30.03R
CROCKETT       CLOUDY    79  73  83 S8        30.03R
BRENHAM        CLOUDY    82  74  78 S10       30.01R
HUNTSVILLE     PTCLDY    81  74  79 S8        30.01R
CONROE         MOCLDY    79  74  84 S9        30.02R
HOUSTON BUSH   CLOUDY    79  74  84 S16       30.00R
HOUSTON HOBBY  CLOUDY    81  76  84 SE9       30.00R
PERLAND        CLOUDY    82  77  84 SE12      30.02S
WHARTON        MOCLDY    78  76  91 SE10      30.02R
$$

THE UPPER TEXAS COAST

CITY           SKY/WX    TMP DP  RH WIND       PRES   REMARKS
ORANGE         CLOUDY    79  74  83 S13G18    30.05R
PORT ARTHUR    MOCLDY    79  75  87 SE14      30.02S
GALVESTON      PTCLDY    80  78  94 SE17G28   30.03R
ANGLETON       MOCLDY    81  77  88 SE14      30.01R
BAY CITY       PTCLDY    80  78  93 SE9       30.02R
$$

TEXAS COASTAL BEND, RIO GRANDE PLAINS DEEP SOUTH TEXAS

CITY           SKY/WX    TMP DP  RH WIND       PRES   REMARKS
VICTORIA       CLOUDY    80  76  87 SE13      30.00R
BEEVILLE       CLOUDY    81  80  96 SE12G18   29.98S
ROCKPORT       MOCLDY    82  77  84 SE15      29.99S
PORT ARANSAS   CLOUDY    81  81  99 SE13      29.99S
PORT LAVACA    CLOUDY    79  78  95 S9        30.01S
CORPUS CHRISTI LGT RAIN  82  78  88 SE14      29.97F
KINGSVILLE NAS LGT RAIN  81  80  97 SE10      29.97F
COTULLA        CLOUDY    86  76  71 SE13      29.95R
LAREDO         CLOUDY    86  78  77 SE9       29.96R
BROWNSVILLE    CLOUDY    82  79  90 SE8       29.98R
PORT ISABEL    CLOUDY    84  80  88 E13       29.97S
HEBBRONVILLE   LGT RAIN  82  76  82 SE9G16    29.99F
MCALLEN        LGT RAIN  85  77  77 E8        29.97R
WESLACO        CLOUDY    84  76  77 SE3       29.98R
FALFURRIAS     CLOUDY    81  77  86 SE6       29.98R
EDINBURG       CLOUDY    83  77  81 SE5       29.98R
$$




USA.gov is the U.S. government's official web portal to all federal, state and local government web resources and services.